Temperature
16 15 14 14 14 14 13 13 13 13 13 13 13 13 12 12 12 12 12 12 12 12 12 12 12 12 12 12 12 12 12 13 13 13 13 13 13 13 13 13 13 13 13
17 16 14 14 14 14 13 13 13 13 13 13 13 12 12 12 12 12 12 12 12 12 12 12 12 12 12 12 12 12 12 13 13 13 13 13 12 12 12 12 12 12 13
17 16 15 14 14 14 13 13 13 13 13 12 12 12 12 12 12 12 12 12 12 12 12 12 12 13 12 12 12 11 11 12 13 13 13 12 12 11 11 11 12 12 12
17 16 15 14 14 14 13 13 13 13 13 12 12 12 12 12 12 12 12 12 12 12 12 12 13 13 13 12 12 11 11 12 12 12 12 12 11 10 10 11 11 11 11
17 17 16 15 14 14 13 13 13 12 12 12 12 12 12 12 11 12 12 12 12 12 12 12 12 12 13 12 12 11 12 12 12 12 12 11 11 10 10 10 10 10 10
18 17 16 15 14 14 13 13 13 13 13 12 12 12 12 11 12 12 12 12 12 12 12 12 12 12 12 12 12 12 12 12 12 11 11 11 10 9 9 9 9 9 10
18 17 16 15 14 14 13 13 13 13 12 12 12 12 12 12 12 12 12 12 12 12 12 12 12 12 12 12 11 11 11 11 11 11 11 10 10 9 9 9 9 9 9
19 17 16 15 15 14 13 13 13 13 12 12 12 12 12 12 12 12 12 12 12 12 11 11 11 11 11 11 11 11 10 10 10 10 10 10 9 9 9 9 9 9 9
18 18 17 16 15 14 14 13 13 13 12 12 12 12 12 12 12 12 12 12 12 11 11 11 11 11 11 11 10 10 10 10 10 10 9 9 9 9 8 9 9 9 9
18 17 17 16 15 14 14 13 13 12 12 12 12 12 12 12 12 11 11 11 11 11 11 11 11 10 10 10 10 9 9 9 9 9 9 9 9 8 8 8 8 8 8
17 17 17 16 16 15 14 13 13 12 12 12 12 12 11 11 11 11 11 11 11 11 10 10 10 10 10 10 9 9 9 9 9 9 9 8 8 8 8 8 8 8 8
18 17 17 17 16 15 14 14 13 12 12 12 12 12 11 11 11 11 11 10 10 10 10 10 10 9 9 9 9 9 9 8 8 8 8 8 8 8 8 8 8 8 8
19 18 17 17 16 16 15 14 13 13 12 12 12 11 11 11 11 10 10 10 10 10 10 9 9 9 9 9 9 9 8 8 8 8 8 8 8 8 8 8 8 8 8
19 19 18 17 17 16 15 15 14 13 13 12 12 11 11 11 11 10 10 10 10 10 9 9 9 9 9 9 9 8 8 8 8 8 8 8 8 8 8 7 7 7 7
19 18 18 17 17 16 15 15 14 14 13 12 12 11 11 11 11 10 10 10 9 9 9 9 9 9 9 9 9 9 8 8 8 8 8 8 8 8 7 7 7 7 7
19 19 18 17 17 16 16 15 15 14 13 12 12 11 11 11 10 10 10 10 9 9 9 9 9 9 9 9 9 9 9 9 8 8 8 8 8 7 7 7 7 6 6
19 19 18 18 17 16 16 15 15 14 13 13 12 11 11 10 10 10 10 10 9 9 9 9 9 9 9 9 9 9 9 9 9 8 8 8 7 7 7 7 7 6 6
19 19 18 17 17 16 16 15 14 14 13 13 12 11 11 10 10 10 10 10 9 9 9 9 9 9 9 9 9 9 9 9 9 8 8 8 7 7 7 7 6 6 6
20 19 18 18 17 16 16 15 14 14 13 12 12 11 11 10 10 10 10 10 9 9 9 9 9 9 9 9 9 9 9 9 8 8 8 7 7 7 7 6 6 6 6
20 20 19 18 17 17 15 14 13 13 12 12 12 11 11 10 10 10 10 10 9 9 9 9 9 9 9 9 9 9 9 9 8 8 7 7 7 7 6 6 6 6 6
20 20 19 18 17 16 15 14 13 13 12 12 11 11 11 10 10 10 10 10 9 9 9 9 9 9 9 9 9 9 9 8 8 8 7 7 7 6 6 6 6 6 5
20 20 19 19 18 17 16 15 15 14 13 12 11 11 11 10 10 10 10 10 9 9 9 9 9 9 9 9 9 9 8 8 8 7 7 7 6 6 6 6 6 5 5
20 20 20 19 18 17 17 15 14 12 12 11 11 11 11 10 10 10 10 10 9 9 9 9 9 9 9 9 9 8 8 8 7 7 7 7 6 6 6 6 5 5 5
20 20 20 19 18 18 16 15 14 13 12 12 12 11 11 10 10 10 10 10 9 9 9 9 9 9 9 9 8 8 8 7 7 7 7 6 6 6 6 5 5 5 4
20 20 19 19 18 17 16 15 14 14 13 13 12 11 11 10 10 10 10 10 9 9 9 9 9 9 9 9 8 8 8 7 7 6 6 6 6 6 5 5 5 4 4
19 19 19 18 17 17 16 15 14 14 13 12 12 11 11 10 10 10 10 10 10 9 9 9 9 9 9 9 8 8 7 7 6 6 5 6 6 6 5 5 5 4 4
Wind_Speed
7 15 21 20 20 19 18 18 17 16 16 15 15 15 14 14 14 14 14 15 15 15 15 16 16 16 16 15 16 16 17 18 18 19 18 18 17 17 17 17 16 16 18
12 20 23 21 21 20 19 19 18 17 16 15 15 15 14 14 14 14 14 14 15 15 15 15 15 15 14 14 14 15 16 17 17 17 17 16 16 16 16 16 16 14 16
16 20 23 22 21 20 20 20 19 17 17 16 15 15 14 14 14 14 13 14 14 15 15 15 15 14 14 13 13 14 14 15 16 16 15 15 13 15 15 15 15 15 15
19 20 21 22 22 21 21 20 19 18 17 16 15 14 14 14 13 13 13 14 14 14 14 14 14 14 13 13 13 13 14 15 15 14 14 14 12 13 13 13 14 14 14
17 19 21 23 23 22 21 21 20 19 17 16 15 15 14 14 13 13 13 13 13 13 13 13 13 13 13 12 12 13 14 14 14 14 13 13 12 12 12 12 12 12 12
14 19 22 24 23 23 22 21 20 19 18 17 15 14 14 13 13 13 12 12 12 12 12 12 12 12 11 11 11 11 12 12 12 12 11 11 10 10 11 11 10 10 10
15 18 22 24 24 23 22 21 20 19 18 17 16 15 14 13 13 12 12 12 11 11 11 10 11 10 10 9 9 9 10 10 10 9 8 8 8 9 9 9 9 9 9
17 18 22 24 24 23 23 22 21 20 19 18 16 15 14 14 13 12 11 11 10 10 9 9 9 8 8 7 7 7 8 8 7 6 5 5 7 7 7 7 7 7 7
16 16 17 21 23 23 23 22 22 20 19 18 17 16 15 14 13 12 11 10 9 9 8 7 7 6 6 5 5 6 6 6 5 4 3 2 5 7 7 7 7 7 7
13 13 13 17 19 20 21 22 22 21 20 19 17 16 15 14 13 12 11 10 9 8 6 6 5 4 3 3 3 4 5 4 3 3 3 1 4 6 7 7 7 8 8
14 12 12 13 16 18 19 21 22 21 20 19 18 17 16 13 13 12 11 10 8 7 5 4 3 2 1 1 2 3 3 3 1 3 4 1 3 6 7 7 7 8 8
18 16 14 13 14 17 18 18 19 18 18 17 17 17 15 14 13 12 12 10 9 7 5 4 3 2 1 2 3 3 2 1 1 3 5 3 2 6 7 7 8 8 8
19 18 17 15 16 16 13 15 15 15 15 16 18 18 16 14 12 11 11 10 8 7 5 3 2 1 2 3 4 3 3 2 1 3 4 4 2 5 7 7 7 7 8
17 19 17 16 15 15 14 14 14 13 13 14 17 18 15 11 9 10 9 9 8 7 5 4 3 3 3 3 3 3 2 1 1 2 3 4 2 4 6 7 7 7 8
18 19 19 18 17 15 13 12 13 12 14 15 16 17 16 11 8 9 9 9 8 8 7 5 4 3 2 2 2 1 1 1 1 0 2 2 1 2 5 6 7 8 8
19 19 19 19 18 15 14 12 12 14 16 16 16 17 18 15 12 9 7 7 8 9 8 6 5 3 2 1 1 1 1 2 2 1 1 1 0 1 3 4 6 7 8
19 20 20 21 19 18 17 14 13 15 16 14 16 18 19 17 15 11 7 6 8 9 8 5 3 2 1 0 1 2 2 3 2 1 1 1 1 1 2 3 5 6 8
16 18 21 19 20 20 17 14 12 15 15 14 17 18 19 18 17 13 7 6 9 9 7 3 2 2 1 1 1 2 2 3 2 1 1 2 3 2 2 3 4 6 7
19 20 21 20 21 20 17 14 11 13 13 14 16 16 18 19 18 14 8 8 10 7 5 3 2 2 1 0 1 1 2 2 2 1 3 3 4 4 3 3 4 5 7
17 19 21 20 20 18 14 10 9 10 10 12 14 15 18 18 18 15 9 9 10 5 4 3 3 2 1 1 1 2 3 2 1 1 2 3 3 4 3 3 3 4 6
14 17 20 20 19 17 15 14 14 13 11 10 10 15 18 17 17 14 8 8 7 6 6 6 4 3 1 1 2 3 4 3 2 2 2 2 3 3 4 3 3 3 4
16 18 20 21 20 20 17 15 12 10 8 8 8 12 17 17 17 14 10 7 7 6 6 5 4 3 2 2 3 2 2 4 3 3 2 2 2 3 3 2 3 3 4
15 18 19 21 19 20 16 10 8 6 5 6 9 10 11 16 17 15 13 9 8 7 7 6 6 6 4 1 2 4 3 3 2 3 2 2 2 1 2 3 4 5 4
15 15 17 18 18 17 16 16 17 13 10 10 9 8 9 13 15 16 14 12 9 7 8 7 6 5 5 3 1 1 2 4 2 2 3 3 3 2 2 3 5 5 5
11 12 14 15 16 16 17 19 18 12 9 7 8 10 10 9 12 14 14 12 9 7 8 8 6 6 4 5 4 3 2 1 2 2 3 4 4 3 3 3 4 4 5
7 9 11 14 15 15 17 17 18 16 12 12 11 12 10 7 8 11 12 11 10 8 8 8 7 8 5 5 4 4 4 3 3 3 4 3 4 4 3 3 2 2 4
Wind_Direction
170 173 165 159 154 148 141 134 128 123 119 115 111 107 104 101 99 96 92 89 86 84 83 81 79 77 76 76 75 73 72 71 67 63 62 63 64 63 61 59 55 50 52
158 167 162 160 155 150 144 136 132 127 123 119 115 110 106 105 103 99 95 91 90 88 85 82 81 79 79 79 79 76 75 75 72 67 60 55 62 63 61 59 58 56 55
152 163 161 161 157 152 145 140 136 132 127 123 119 115 112 109 106 102 99 95 92 89 87 85 83 81 80 81 81 78 76 79 76 70 57 42 48 62 61 59 57 56 55
153 159 161 162 158 153 148 144 140 136 132 128 124 121 117 113 110 107 103 100 96 92 90 88 86 84 84 84 82 78 77 81 79 70 52 40 38 61 60 58 57 55 53
152 157 162 161 159 155 151 148 144 140 137 133 130 127 123 119 115 111 108 104 101 97 93 90 88 87 86 85 82 78 79 83 80 69 53 38 31 59 61 57 55 54 53
151 157 163 161 159 156 153 151 149 146 142 139 136 133 129 126 121 116 113 109 106 102 98 94 91 88 87 86 82 79 81 84 83 73 57 40 28 52 56 53 50 50 49
155 160 164 163 162 160 158 155 154 151 148 146 142 139 136 130 127 123 120 115 111 108 104 99 94 90 88 86 82 78 80 83 86 81 66 43 34 49 50 46 42 41 41
158 161 166 167 165 163 161 160 159 156 154 152 149 147 142 139 136 132 128 123 119 114 109 105 99 93 88 86 81 76 73 75 85 92 81 46 36 40 43 38 30 27 26
158 161 166 169 168 166 165 164 164 162 159 158 156 153 149 147 145 142 138 133 129 123 116 111 105 98 91 83 76 66 56 62 89 124 125 63 37 32 29 23 17 12 9
159 163 166 167 167 167 168 168 167 166 165 164 162 158 157 157 154 151 149 147 143 138 133 125 116 103 89 73 54 39 35 49 82 140 166 115 36 22 15 8 3 358 357
167 170 168 166 167 167 168 171 170 171 170 169 165 163 163 162 159 157 162 162 158 156 154 151 148 136 93 343 335 350 18 44 109 172 195 203 23 10 3 358 353 348 345
177 178 176 172 170 168 172 173 172 172 173 170 166 166 166 166 168 170 177 178 176 178 183 188 196 207 260 288 304 320 330 344 193 201 210 223 345 358 359 355 350 347 345
179 179 180 178 174 174 174 172 174 173 172 171 170 171 171 171 174 178 183 189 190 194 204 221 244 257 262 259 278 294 300 298 261 226 220 232 305 347 354 355 351 349 349
178 184 182 180 178 179 176 176 176 175 175 176 178 177 170 169 174 180 185 192 192 195 205 220 234 255 261 260 264 277 306 314 285 235 239 244 293 342 350 354 356 356 355
183 186 184 182 182 181 178 179 181 181 181 181 181 182 177 174 178 183 190 193 195 196 200 209 219 236 257 272 271 264 323 352 1 252 256 244 270 338 352 358 0 360 2
190 189 186 186 185 181 183 183 184 185 184 183 185 186 183 180 181 182 185 189 196 198 202 201 203 212 231 257 333 8 5 353 349 358 165 162 193 1 12 15 10 11 9
194 190 187 188 185 185 186 185 185 186 184 185 188 188 186 183 181 181 181 188 198 198 193 188 187 178 165 80 17 356 351 339 344 19 114 138 125 87 60 32 20 16 14
195 191 189 188 188 188 187 185 185 186 184 186 187 188 187 185 184 182 181 191 196 187 178 167 159 137 121 86 347 330 335 331 334 0 114 123 120 108 77 47 30 19 8
199 193 189 188 188 189 187 184 182 182 184 185 185 186 189 187 186 182 184 190 183 173 169 166 148 146 156 203 277 315 332 322 321 63 108 117 122 118 98 55 31 12 2
201 194 191 189 187 185 181 175 176 179 184 184 185 186 186 188 186 182 182 182 172 161 162 158 146 128 139 173 347 354 345 342 25 70 90 98 108 108 97 69 46 16 3
196 191 190 188 184 179 182 182 184 189 187 187 187 186 186 186 186 181 177 172 169 170 173 163 145 136 111 91 69 7 351 6 39 29 48 79 76 84 85 69 48 16 4
193 192 190 188 184 184 188 188 187 178 179 181 180 186 188 186 184 184 176 173 169 164 162 162 150 140 128 114 124 92 5 346 356 8 22 66 54 55 47 27 8 350 347
194 192 191 190 187 186 181 168 150 138 138 169 187 190 190 187 184 181 178 173 171 169 172 174 165 155 159 139 126 142 151 223 301 331 352 10 1 13 4 347 337 332 331
199 193 190 187 185 184 175 175 174 180 185 187 183 184 182 184 182 180 177 174 171 170 170 174 169 161 150 159 144 120 148 154 163 300 319 327 337 333 317 323 318 320 331
192 187 186 182 183 181 180 181 183 186 183 165 163 173 179 182 180 179 177 174 172 172 171 166 162 161 156 161 163 151 131 105 132 170 268 305 318 295 282 290 294 308 330
180 179 179 179 182 181 181 182 185 183 172 165 172 179 181 179 180 179 175 174 172 170 170 169 166 163 162 158 161 159 159 162 179 177 220 260 284 286 287 288 276 283 321
Height
1524 1526 1530 1532 1534 1536 1538 1539 1539 1540 1540 1541 1541 1541 1541 1542 1542 1543 1543 1543 1543 1544 1544 1543 1543 1543 1543 1543 1543 1543 1543 1543 1543 1543 1543 1542 1542 1541 1541 1541 1541 1541 1540
1522 1525 1529 1532 1534 1536 1537 1538 1539 1540 1540 1541 1541 1542 1542 1542 1543 1543 1544 1544 1544 1544 1544 1543 1543 1543 1543 1543 1543 1543 1543 1543 1543 1543 1543 1543 1542 1542 1541 1541 1541 1541 1540
1522 1525 1528 1531 1534 1536 1537 1538 1539 1540 1541 1541 1542 1542 1542 1543 1543 1544 1544 1544 1544 1544 1544 1544 1544 1544 1543 1544 1544 1544 1544 1544 1544 1544 1544 1543 1543 1543 1542 1541 1541 1541 1540
1522 1525 1527 1531 1533 1535 1537 1538 1539 1540 1541 1541 1542 1542 1543 1543 1544 1544 1544 1545 1545 1545 1545 1545 1544 1544 1544 1544 1544 1545 1545 1545 1545 1545 1544 1544 1543 1543 1543 1542 1542 1541 1541
1522 1524 1527 1530 1533 1535 1536 1538 1539 1540 1541 1542 1542 1543 1543 1544 1544 1545 1545 1545 1545 1545 1545 1545 1545 1545 1545 1545 1546 1546 1546 1546 1546 1546 1545 1545 1545 1545 1544 1543 1542 1542 1541
1521 1524 1527 1530 1532 1534 1536 1537 1539 1540 1541 1542 1542 1543 1544 1544 1545 1545 1546 1546 1546 1546 1546 1546 1546 1546 1546 1546 1547 1547 1546 1546 1546 1546 1546 1546 1545 1545 1545 1544 1543 1543 1542
1521 1524 1526 1529 1532 1534 1535 1537 1538 1540 1541 1542 1542 1543 1544 1544 1545 1545 1546 1546 1547 1547 1547 1547 1547 1547 1547 1547 1547 1547 1547 1547 1547 1547 1547 1547 1546 1546 1546 1545 1544 1544 1543
1520 1523 1526 1529 1531 1533 1535 1536 1538 1539 1540 1541 1542 1543 1544 1544 1545 1546 1546 1547 1547 1548 1548 1548 1548 1548 1548 1548 1548 1548 1548 1548 1548 1548 1547 1547 1547 1546 1546 1545 1545 1544 1544
1520 1522 1525 1527 1530 1532 1534 1536 1537 1539 1540 1541 1542 1543 1544 1544 1545 1546 1546 1547 1547 1548 1548 1548 1549 1549 1549 1548 1548 1548 1548 1548 1548 1548 1547 1547 1547 1546 1546 1545 1545 1544 1544
1520 1522 1524 1526 1528 1530 1533 1534 1536 1538 1539 1540 1541 1542 1543 1544 1545 1546 1546 1547 1548 1548 1548 1549 1549 1549 1549 1549 1549 1549 1549 1548 1548 1548 1547 1547 1547 1546 1546 1545 1544 1543 1543
1518 1520 1522 1524 1527 1529 1531 1533 1535 1536 1538 1539 1540 1542 1543 1544 1545 1546 1546 1547 1547 1548 1548 1549 1549 1549 1549 1549 1549 1549 1549 1549 1548 1548 1547 1547 1546 1546 1545 1544 1543 1542 1542
1514 1517 1520 1522 1524 1527 1529 1531 1533 1535 1536 1538 1539 1540 1542 1543 1544 1545 1546 1547 1547 1548 1548 1548 1549 1549 1549 1549 1549 1549 1549 1548 1548 1547 1547 1546 1546 1545 1544 1543 1542 1541 1541
1511 1514 1517 1519 1522 1524 1526 1528 1530 1532 1534 1536 1538 1539 1541 1542 1543 1544 1545 1546 1547 1547 1548 1548 1548 1549 1549 1549 1549 1549 1548 1548 1547 1547 1546 1546 1545 1544 1543 1542 1541 1540 1540
1508 1511 1513 1516 1519 1521 1524 1526 1528 1530 1532 1534 1536 1537 1539 1540 1542 1543 1544 1545 1546 1547 1547 1548 1548 1548 1548 1548 1548 1548 1547 1547 1546 1546 1545 1545 1544 1543 1542 1541 1540 1539 1538
1505 1507 1510 1513 1515 1518 1520 1523 1525 1527 1529 1532 1534 1535 1537 1539 1540 1542 1543 1544 1545 1546 1547 1547 1547 1547 1547 1548 1547 1547 1546 1546 1545 1545 1544 1543 1543 1542 1541 1540 1539 1538 1537
1500 1503 1506 1509 1511 1514 1517 1519 1521 1524 1527 1529 1531 1533 1535 1537 1539 1540 1542 1543 1544 1545 1546 1546 1546 1547 1547 1547 1546 1546 1545 1545 1544 1543 1542 1542 1541 1540 1539 1539 1538 1537 1536
1496 1499 1501 1504 1507 1510 1513 1515 1518 1521 1523 1526 1528 1530 1532 1534 1537 1538 1540 1541 1542 1543 1544 1545 1545 1545 1545 1545 1545 1545 1544 1543 1542 1541 1541 1540 1539 1539 1538 1537 1536 1535 1534
1491 1494 1496 1499 1502 1505 1508 1511 1514 1517 1520 1523 1525 1528 1530 1532 1534 1536 1538 1539 1541 1542 1543 1543 1544 1544 1544 1544 1544 1543 1542 1541 1541 1540 1539 1538 1538 1537 1537 1536 1535 1534 1533
1486 1488 1491 1493 1496 1500 1503 1507 1510 1513 1516 1519 1522 1524 1527 1529 1531 1533 1535 1537 1539 1540 1541 1541 1542 1542 1542 1542 1542 1541 1540 1540 1539 1538 1538 1537 1537 1536 1535 1534 1533 1532 1531
1481 1483 1485 1488 1491 1495 1499 1503 1506 1509 1512 1515 1518 1521 1524 1526 1529 1531 1533 1535 1536 1538 1539 1539 1540 1540 1540 1540 1540 1539 1539 1538 1537 1537 1537 1536 1535 1535 1534 1533 1532 1530 1529
1474 1477 1479 1482 1485 1489 1493 1496 1499 1503 1506 1510 1513 1517 1520 1523 1525 1528 1530 1532 1533 1535 1536 1537 1538 1538 1538 1538 1538 1538 1537 1537 1536 1536 1535 1535 1534 1533 1532 1531 1530 1529 1527
1467 1469 1472 1475 1479 1482 1485 1489 1493 1497 1501 1506 1510 1513 1516 1519 1522 1524 1526 1529 1530 1532 1534 1535 1535 1535 1536 1536 1536 1536 1536 1536 1535 1534 1534 1533 1533 1532 1531 1530 1528 1526 1525
1460 1462 1465 1469 1472 1476 1480 1485 1490 1495 1499 1502 1505 1508 1512 1515 1518 1520 1523 1525 1527 1529 1530 1532 1533 1533 1533 1534 1534 1534 1533 1533 1533 1533 1532 1531 1531 1530 1529 1527 1526 1524 1522
1453 1456 1459 1463 1467 1471 1475 1478 1482 1485 1489 1492 1497 1502 1507 1511 1514 1517 1520 1522 1524 1526 1527 1529 1530 1530 1531 1531 1531 1531 1531 1531 1531 1530 1530 1529 1528 1527 1526 1525 1523 1521 1520
1447 1450 1454 1457 1461 1465 1469 1472 1476 1480 1484 1489 1494 1498 1503 1506 1510 1513 1516 1518 1520 1522 1524 1525 1526 1527 1527 1528 1528 1528 1528 1528 1528 1528 1527 1526 1525 1524 1523 1522 1520 1518 1516
1442 1445 1448 1452 1455 1459 1463 1466 1470 1475 1479 1484 1488 1493 1497 1501 1505 1508 1511 1514 1516 1519 1520 1522 1523 1524 1524 1525 1525 1525 1525 1525 1524 1524 1523 1522 1521 1520 1519 1518 1517 1515 1513